Regional Weather Roundup
Issued by NWS

Home | Current Version | Previous Version | Graphics & Text | Print | Product List | Glossary On
Versions: 1 2 3 4 5 6 7 8 9 10 11 12 13 14 15 16 17 18 19 20 21 22 23 24 25 26 27 28 29 30 31 32 33 34 35 36 37 38 39 40 41 42 43 44 45 46 47 48 49 50
000
ASUS44 KMEG 270700
RWRTN
TENNESSEE HOURLY STATE WEATHER ROUNDUP
NATIONAL WEATHER SERVICE MEMPHIS TN
200 AM CDT WED AUG 27 2014

TNZ002-004-019-021-049-052-054-088>092-270800-
WEST TENNESSEE

CITY           SKY/WX    TMP DP  RH WIND       PRES   REMARKS
MEMPHIS INTL   CLEAR     76  68  76 CALM      30.05F
NWS MEMPHIS      N/A     73 N/A N/A MISG        N/A
JACKSON        FOG       72  71  97 CALM      30.07S VSB 3/4
DYERSBURG      CLEAR     72  64  78 CALM      30.08S
UNION CITY       N/A     70  70 100 CALM      30.06F VSB 1/4
PARIS            N/A     68  68 100 CALM      30.08S VSB 1
LEXINGTON      CLEAR     70  70 100 CALM      30.07S
SAVANNAH       CLEAR     68  68 100 CALM      30.08S
$$

TNZ008-025-027-028-033-062-065-066-270800-
NORTH MIDDLE TENNESSEE

CITY           SKY/WX    TMP DP  RH WIND       PRES   REMARKS
NASHVILLE      CLEAR     73  70  90 CALM      30.08S
CLARKSVILLE    FOG       72  70  93 CALM      30.07S VSB 3/4
COOKEVILLE     CLOUDY    66  66 100 CALM      30.09F VSB 1/4
CROSSVILLE     CLEAR     66  63  90 CALM      30.14F FOG
$$

TNZ061-075-076-078-094-096-097-270800-
SOUTH MIDDLE TENNESSEE

CITY           SKY/WX    TMP DP  RH WIND       PRES   REMARKS
FAYETTEVILLE   CLEAR     68  66  94 CALM      30.09F
WINCHESTER     CLEAR     64  64 100 CALM      30.10S
SHELBYVILLE    CLEAR     70  68  94 CALM      30.09F
$$

TNZ017-018-042-046-047-270800-
NORTHEAST TENNESSEE

CITY           SKY/WX    TMP DP  RH WIND       PRES   REMARKS
TRI CITIES     CLEAR     59  57  93 CALM      30.13F
ELIZABETHTON   SUNNY     57  55  94 CALM      30.14F
$$

TNZ012-013-036-069-073-074-270800-
CENTRAL EAST TENNESSEE

CITY           SKY/WX    TMP DP  RH WIND       PRES   REMARKS
KNOXVILLE      PTCLDY    68  65  90 CALM      30.08F
OAK RIDGE      PTCLDY    67  65  93 CALM      30.10F
GATLINBURG     SUNNY     63  61  94 CALM      30.10S
$$

TNZ083-085-099-270800-
SOUTHEAST TENNESSEE

CITY           SKY/WX    TMP DP  RH WIND       PRES   REMARKS
CHATTANOOGA    CLEAR     71  66  84 CALM      30.09S
$$

SKY/WX REPORTED AS FAIR MEANS FEW OR NO CLOUDS BELOW
12 THOUSAND FEET.



USA.gov is the U.S. government's official web portal to all federal, state and local government web resources and services.